Location: Aulnoy
(48.8410°N, 3.0967°E)
Time: 09:53:18
(UTC+00:00)

Nadezhda 2 Rocket - Pass Details

Date: 09 February 2023
Orbit: 947 x 1011 km, 83.0° (Epoch: 23 March)

Event Time Altitude Azimuth Distance (km) Brightness Sun altitude
Rises 17:35:49 0° 350° (N) 3,662 7.5 -6.8°
Reaches altitude 10° 17:38:21 10° 351° (N) 2,704 6.8 -7.2°
Maximum altitude 17:44:32 89° 80° (E) 959 4.5 -8.1°
Drops below altitude 10° 17:50:38 10° 172° (S) 2,663 6.9 -9.1°
Sets 17:53:06 0° 173° (S) 3,603 7.5 -9.5°
